IRIDIUM 32 [P]

Last updated on Thu Feb 14 2019 03:05:58 GMT+0000 (Coordinated Universal Time)

1 24945U 97051B 19044.77000544 .00758915 -12992-5 15050-2 0 9998 2 24945 86.3770 33.2873 0382046 170.1350 190.7693 15.34306435121398

Satellite not in orbit